Domov               UVHVVR             MKGP            O straneh              
ZDRAVSTVENO VARSTVO RASTLIN
  MREŽA AGROMET. POSTAJ
 ► PROGNOSTIČNA OBVESTILA
AGROMETEOROLOŠKI PODATKI -
ARSO
OBVLADOVANJE TVEGANJ ZARADI
NEUGODNIH VREMENSKIH RAZMER
  ► NARAVNE NESREČE
  ► SUŠA/MOČA
  ► NAMAKANJE
  ► ŽLED (gozdarstvo)
KARTOGRAFSKI PRIKAZI
SPLETNE POVEZAVE
PROJEKTI IN PUBLIKACIJE

AGROMETEOROLOŠKA MREŽA: VREMENSKE POSTAJE IN FENOLOŠKA OPAZOVANJA

Pregled podatkov za lokacijo Zavrhek, meteorološka postaja 37907

Pregled senzorjev na lokaciji

ID Ime Zadnja
vrednost
Datum
zadnje
spremembe
Tip
senzorja
1989 Temperatura 2 m ( °C) 15,14 °C 21.8.2017 02:30 50YA
1990 Relativna vlaga 2 m (% RH) 57,46 % RH 21.8.2017 02:30 50YA
1991 Padavine 0.2 mm (mm) 0 mm 21.8.2017 02:30 Rain-O-Matic

Pregled podatkov zadnjih 24 ur

Zap.
št.
Datum in čas Zavrhek
Padavine
0.2
mm
Relativna
vlaga
2
m
Temperatura
2
m
0 21.8.2017 01:30 0 57,46 15,14
1 21.8.2017 01:00 0 56,85 15,78
2 21.8.2017 00:30 0 57,34 15,95
3 21.8.2017 00:00 0 59,34 16,02
4 20.8.2017 23:30 0 56,02 17
5 20.8.2017 23:00 0 55,63 17,09
6 20.8.2017 22:30 0 57,51 16,9
7 20.8.2017 22:00 0 59,22 16,7
8 20.8.2017 21:30 0 61,12 16,61
9 20.8.2017 21:00 0 60 16,97
10 20.8.2017 20:30 0 56,53 17,78
11 20.8.2017 20:00 0 54,09 18,41
12 20.8.2017 19:30 0 55,31 18,8
13 20.8.2017 19:00 0 55,53 19,41
14 20.8.2017 18:30 0 53,48 19,93
15 20.8.2017 18:00 0 50,23 20,68
16 20.8.2017 17:30 0 46,81 21,22
17 20.8.2017 17:00 0 47,28 21,66
18 20.8.2017 16:30 0 45,52 22,32
19 20.8.2017 16:00 0 42,61 22,64
20 20.8.2017 15:30 0 41,98 22,91
21 20.8.2017 15:00 0 41,37 23,15
22 20.8.2017 14:30 0 43,17 23,17
23 20.8.2017 14:00 0 44,1 22,91
24 20.8.2017 13:30 0 43,74 22,61
25 20.8.2017 13:00 0 42,34 22,52
26 20.8.2017 12:30 0 42,69 22,78
27 20.8.2017 12:00 0 45,62 22,49
28 20.8.2017 11:30 0 46,69 21,68
29 20.8.2017 11:00 0 48,38 21,32
30 20.8.2017 10:30 0 50,5 20,59
31 20.8.2017 10:00 0 53,41 19,98
32 20.8.2017 09:30 0 55,34 19,41
33 20.8.2017 09:00 0 56,92 19,05
34 20.8.2017 08:30 0 58,61 18,05
35 20.8.2017 08:00 0 59,39 17,48
36 20.8.2017 07:30 0 62,56 16,7
37 20.8.2017 07:00 0 67,2 15,7
38 20.8.2017 06:30 0 69,45 15,34
39 20.8.2017 06:00 0 72,89 14,63
40 20.8.2017 05:30 0 76,61 14,19
41 20.8.2017 05:00 0 78,39 14,02
42 20.8.2017 04:30 0 77,48 14,19
43 20.8.2017 04:00 0 72,82 14,7
44 20.8.2017 03:30 0 70,23 14,87
45 20.8.2017 03:00 0 73,63 14,58
© 2011 Ministrstvo za kmetijstvo, gozdarstvo in prehrano. Vse pravice pridržane.